Weather History for Jaffrey, NH

Change the Weather History Date:

Thursday, November 28, 2013

  Actual Average Record
Temperature  
Mean Temperature 26 °F -  
Max Temperature 33 °F 39 °F 62 °F (2003)
Min Temperature 19 °F 24 °F 9 °F (1996)
Degree Days  
Heating Degree Days 39    
Moisture  
Dew Point 12 °F    
Average Humidity 58    
Maximum Humidity 79    
Minimum Humidity 35    
Precipitation  
Precipitation 0.00 in - - ()
Sea Level Pressure  
Sea Level Pressure 30.00 in    
Wind  
Wind Speed 11 mph (West)    
Max Wind Speed 16 mph    
Max Gust Speed 28 mph    
Visibility 10 miles    
Events Snow    
Averages and records for this station are not official NWS values.
T = Trace of Precipitation, MM = Missing Value Source: NWS Daily Summary

Daily Weather History Graph

Daily Weather History Graph

Search for Another Location

Airport:

Trip Planner

Search our weather history database for the weather conditions in past years. The results will help you decide how hot, cold, wet, or windy it might be!

Date:

Astronomy

Nov. 28, 2013 Rise Set
Actual Time 6:55 AM EST 4:16 PM EST
Civil Twilight 6:24 AM EST 4:47 PM EST
Nautical Twilight 5:49 AM EST 5:22 PM EST
Astronomical Twilight 5:15 AM EST 5:56 PM EST
Moon 1:49 AM EST (11/28) 1:29 PM EST (11/28)
Length of Visible Light 10h 23m
Length of Day
9h 20m
Waning Crescent, 22% of the Moon is Illuminated
Nov 28
Waning Crescent
Dec 2
New
Dec 9
First Quarter
Dec 17
Full
Dec 25
Last Quarter

Hourly Weather History & Observations

Time (EST) Temp. Windchill Dew Point Humidity Pressure Visibility Wind Dir Wind Speed Gust Speed Precip Events Conditions
12:52 AM 33.1 °F 23.4 °F 25.0 °F 72% 29.53 in 10.0 mi WNW 13.8 mph 20.7 mph N/A   Overcast
1:09 AM 33.1 °F 24.4 °F 25.0 °F 72% 29.52 in 7.0 mi West 11.5 mph 20.7 mph 0.00 in Snow Light Snow
1:52 AM 32.0 °F 27.5 °F 26.1 °F 79% 29.57 in 5.0 mi West 4.6 mph - 0.00 in Snow Light Snow
2:52 AM 32.0 °F 27.5 °F 25.0 °F 75% 29.62 in 10.0 mi Variable 4.6 mph - 0.00 in   Overcast
3:14 AM 30.9 °F 22.8 °F 23.0 °F 72% 29.60 in 10.0 mi WNW 9.2 mph 18.4 mph N/A   Overcast
3:52 AM 30.0 °F 21.1 °F 21.9 °F 72% 29.68 in 10.0 mi WSW 10.4 mph - N/A   Overcast
4:52 AM 28.0 °F 17.5 °F 19.0 °F 69% 29.75 in 10.0 mi WSW 12.7 mph 19.6 mph 0.00 in   Overcast
5:52 AM 26.1 °F 15.0 °F 16.0 °F 66% 29.82 in 10.0 mi West 12.7 mph 25.3 mph N/A   Overcast
6:03 AM 26.1 °F 13.6 °F 16.0 °F 66% 29.78 in 10.0 mi West 16.1 mph 27.6 mph N/A   Overcast
6:13 AM 26.1 °F 15.0 °F 16.0 °F 66% 29.79 in 10.0 mi WSW 12.7 mph 26.5 mph N/A   Overcast
6:52 AM 25.0 °F 14.2 °F 15.1 °F 66% 29.88 in 10.0 mi West 11.5 mph 19.6 mph N/A   Mostly Cloudy
7:19 AM 24.1 °F 13.7 °F 15.1 °F 69% 29.85 in 10.0 mi West 10.4 mph 19.6 mph N/A   Mostly Cloudy
7:41 AM 24.1 °F 12.5 °F 15.1 °F 69% 29.88 in 10.0 mi West 12.7 mph 23.0 mph N/A   Mostly Cloudy
7:52 AM 24.1 °F 11.5 °F 14.0 °F 65% 29.94 in 10.0 mi West 15.0 mph 24.2 mph N/A   Mostly Cloudy
8:11 AM 24.1 °F 12.0 °F 12.9 °F 62% 29.91 in 10.0 mi WNW 13.8 mph 24.2 mph N/A   Scattered Clouds
8:52 AM 25.0 °F 13.1 °F 10.0 °F 53% 30.01 in 10.0 mi West 13.8 mph 19.6 mph N/A   Clear
9:52 AM 26.1 °F 15.6 °F 10.0 °F 51% 30.06 in 10.0 mi WNW 11.5 mph 20.7 mph N/A   Scattered Clouds
10:52 AM 26.1 °F 16.2 °F 9.0 °F 49% 30.08 in 10.0 mi WNW 10.4 mph 23.0 mph N/A   Mostly Cloudy
11:52 AM 26.1 °F 15.0 °F 8.1 °F 47% 30.12 in 10.0 mi West 12.7 mph 20.7 mph N/A   Mostly Cloudy
12:52 PM 25.0 °F 12.6 °F 3.9 °F 41% 30.14 in 10.0 mi WNW 15.0 mph 27.6 mph N/A   Clear
1:52 PM 26.1 °F 14.0 °F 1.9 °F 35% 30.15 in 10.0 mi WNW 15.0 mph 26.5 mph N/A   Clear
2:52 PM 26.1 °F 15.6 °F 1.9 °F 35% 30.19 in 10.0 mi WNW 11.5 mph 24.2 mph N/A   Clear
3:52 PM 25.0 °F 13.6 °F 1.0 °F 36% 30.23 in 10.0 mi WNW 12.7 mph 23.0 mph N/A   Clear
4:52 PM 24.1 °F 16.0 °F 1.9 °F 38% 30.27 in 10.0 mi West 6.9 mph - N/A   Clear
5:52 PM 23.0 °F 17.0 °F 3.0 °F 42% 30.31 in 10.0 mi West 4.6 mph - N/A   Clear
6:52 PM 21.9 °F 17.2 °F 3.0 °F 44% 30.35 in 10.0 mi Variable 3.5 mph - N/A   Clear
7:52 PM 21.0 °F 14.6 °F 5.0 °F 50% 30.38 in 10.0 mi SSW 4.6 mph - N/A   Clear
8:52 PM 19.9 °F 14.9 °F 7.0 °F 57% 30.39 in 10.0 mi SSW 3.5 mph - N/A   Clear
9:52 PM 19.9 °F 14.9 °F 8.1 °F 60% 30.41 in 10.0 mi SW 3.5 mph - N/A   Clear
10:52 PM 19.0 °F 13.9 °F 8.1 °F 62% 30.42 in 10.0 mi SW 3.5 mph - N/A   Partly Cloudy
11:52 PM 19.0 °F 12.3 °F 8.1 °F 62% 30.43 in 10.0 mi SSW 4.6 mph - N/A   Clear